[[{"header":{"parameterUnit":"m.s-1","parameterCategory":1,"la1":30.2991,"la2":30.254,"lo1":-89.0895,"lo2":-89.0444,"dy":0.0017,"dx":0.0017,"nx":28,"ny":28,"refTime":"2025-03-01T09:00:00:Z","depth":0,"parameterNumber":2,"parameterNumberName":"U-component_of_WINDS"},"data":[0,0,0,0,0,0,0,0,0,0,0,0,0,0,0,0,0,0,0,0,0,0,0,0,0,0,0,0,0,0,0,0,0,0,0,0,0,0,0,0,0,0,0,0,0,0,0,0,0,0,0,0,0,0,0,0,0,0,0.128,0.128,0,0.1282,0.1282,0.1282,0.1266,0.1265,0.1265,0.1264,0.1267,0.1267,0.1268,0,0,0,0,0,0,0,0,0,0,0,0,0,0.1262,0.1262,0.128,0.128,0.128,0.1282,0.1282,0.1282,0.1266,0.1265,0.1265,0.1264,0.1267,0.1267,0.1268,0,0,0,0,0,0,0,0,0,0,0,0,0,0.1267,0.1262,0.128,0.1272,0.1271,0.1282,0.1282,0.1282,0.1266,0.1265,0.1265,0.1264,0.1266,0.1267,0.1268,0.1286,0,0,0.127,0.127,0,0,0,0,0,0,0,0,0.1267,0.1268,0.1273,0.1272,0.1272,0.1273,0.1276,0.1283,0.1266,0.1268,0.1264,0.1264,0.1269,0.127,0.1272,0.1286,0.1286,0.127,0.1271,0.1271,0.1271,0,0,0,0,0,0,0,0.1267,0.1268,0.1281,0.1273,0.1272,0.1268,0.1268,0.1278,0.1272,0.1268,0.1267,0.1267,0.1269,0.1271,0.1272,0.1286,0.127,0.1271,0.1271,0.1272,0.1316,0.1317,0,0,0,0,0,0,0.1267,0.1268,0.128,0.1281,0.1268,0.1269,0.1269,0.1273,0.1272,0.1272,0.1268,0.1266,0.127,0.1271,0.1272,0.1293,0.1271,0.1272,0.1272,0.1315,0.1316,0.1317,0,0,0,0,0,0,0.1267,0.1269,0.128,0.1274,0.1275,0.127,0.1275,0.1274,0.1276,0.1272,0.1271,0.1271,0.127,0.1271,0.1283,0.1293,0.1272,0.1273,0.1314,0.1316,0.1317,0.1336,0,0,0,0,0,0,0.1267,0.1269,0.1275,0.1274,0.1275,0.1291,0.1275,0.1274,0.1277,0.1275,0.1275,0.1274,0.1269,0.1282,0.1283,0.1294,0.1273,0.1314,0.1315,0.1316,0.1334,0.1337,0.134,0,0,0,0,0,0.1266,0.1281,0.1276,0.1277,0.1284,0.1292,0.1293,0.1286,0.1278,0.1285,0.1283,0.1274,0.1292,0.1283,0.1285,0.1295,0.1313,0.1315,0.1316,0.1333,0.1337,0.134,0,0,0,0,0,0,0.1283,0.128,0.1275,0.129,0.1291,0.1289,0.1297,0.1291,0.1295,0.1293,0.1285,0.1285,0.1299,0.1298,0.1289,0.1313,0.1301,0.1303,0.1313,0.1316,0.1319,0.1319,0.1274,0,0,0,0,0,0.1289,0.1295,0.1293,0.1306,0.1307,0.1302,0.1305,0.1301,0.1302,0.1302,0.1301,0.1303,0.1309,0.1312,0.1318,0.1334,0.1334,0.1342,0.1345,0.1348,0.135,0.1359,0.1362,0.1323,0.1323,0.1323,0,0,0.13,0.1299,0.1304,0.1309,0.131,0.1317,0.1303,0.1311,0.1316,0.1304,0.1315,0.1314,0.1315,0.133,0.1336,0.133,0.1361,0.135,0.1352,0.1352,0.1361,0.1364,0.1368,0.1324,0.1323,0.1323,0,0,0.1325,0.1325,0.1336,0.1337,0.1338,0.1335,0.1337,0.1337,0.1336,0.1347,0.1337,0.1344,0.1354,0.1355,0.1357,0.1383,0.1375,0.1385,0.14,0.1409,0.1412,0.1415,0.1424,0.1427,0.1387,0.1387,0.1387,0,0.1339,0.1349,0.1342,0.1351,0.1354,0.1343,0.1354,0.1356,0.1358,0.136,0.1353,0.1366,0.1366,0.1381,0.1387,0.1389,0.1392,0.1385,0.1412,0.1415,0.1417,0.1426,0.1429,0.1388,0.1388,0.1388,0.1388,0,0.1366,0.1374,0.1383,0.1386,0.1389,0.14,0.1394,0.1399,0.1394,0.1392,0.1403,0.1403,0.1408,0.1411,0.1406,0.1425,0.1421,0.1414,0.1401,0.1422,0.143,0.1434,0.1389,0.1389,0.1389,0.1388,0,0,0.1401,0.1401,0.1404,0.1406,0.1406,0.1412,0.1422,0.1427,0.1431,0.1433,0.1441,0.145,0.1443,0.1445,0.144,0.1448,0.1469,0.1439,0.1439,0.1445,0.149,0.1496,0.15,0.1464,0.1464,0.1465,0.149,0,0.1425,0.1442,0.1436,0.1453,0.146,0.145,0.1458,0.146,0.1458,0.1463,0.1461,0.1468,0.1458,0.1459,0.1466,0.1465,0.1477,0.1463,0.1471,0.1472,0.1471,0.1504,0.151,0.1533,0.1493,0.1493,0.1494,0,0.1455,0.1459,0.1477,0.1476,0.1479,0.1487,0.1491,0.1496,0.1498,0.1496,0.1499,0.1493,0.1502,0.149,0.1503,0.1493,0.1497,0.1496,0.1497,0.1498,0.1484,0.1505,0.154,0.1544,0.1498,0.1498,0.1498,0,0.1479,0.1489,0.15,0.1502,0.1502,0.1507,0.1508,0.1508,0.1512,0.1516,0.1518,0.1523,0.1525,0.1529,0.1525,0.1516,0.1539,0.1526,0.1538,0.1538,0.1543,0.1542,0.1579,0.1545,0.1545,0.1545,0.1545,0,0.1506,0.1517,0.1511,0.1518,0.153,0.1524,0.1536,0.1535,0.1536,0.1543,0.1535,0.1542,0.1535,0.1542,0.1538,0.155,0.1551,0.155,0.1549,0.1551,0.1551,0.1552,0.1551,0.1546,0.1546,0.1545,0.1545,0,0.1535,0.1531,0.1543,0.1542,0.1542,0.1551,0.1551,0.1557,0.1555,0.1564,0.1566,0.1562,0.1569,0.1565,0.1572,0.157,0.1585,0.1582,0.1584,0.1583,0.1595,0.1594,0.1634,0.1639,0.1602,0.1602,0.1603,0,0.1552,0.1561,0.1561,0.1565,0.1566,0.1572,0.1576,0.157,0.1574,0.1577,0.1583,0.1589,0.1594,0.1606,0.1604,0.1609,0.1606,0.162,0.1607,0.1608,0.1606,0.1606,0.1607,0.1622,0.1623,0.1623,0.1623,0,0.1584,0.1582,0.1587,0.1592,0.1596,0.16,0.1602,0.1606,0.1601,0.1606,0.1613,0.1616,0.1624,0.163,0.1635,0.1635,0.1628,0.1628,0.163,0.1632,0.1634,0.1633,0.1591,0.1627,0.1626,0.1626,0.1626,0.1626,0.1607,0.1614,0.1616,0.1622,0.1623,0.1626,0.1633,0.1631,0.1637,0.1643,0.1639,0.1647,0.1649,0.1655,0.1656,0.1663,0.1657,0.1661,0.1662,0.1664,0.1665,0.1633,0.1663,0.1663,0.1663,0.1663,0.1663,0,0.1638,0.1639,0.1645,0.1649,0.1654,0.1647,0.165,0.1655,0.1662,0.1665,0.1669,0.1678,0.1684,0.1683,0.1688,0.1694,0.1691,0.1696,0.1695,0.1695,0.167,0.1667,0.1698,0.1698,0.1698,0.1698,0.1698,0.1698,0.1655,0.1667,0.1665,0.1677,0.1677,0.1686,0.1688,0.1691,0.1692,0.1702,0.1707,0.1706,0.1707,0.1713,0.1719,0.1718,0.1721,0.1726,0.1725,0.1701,0.1697,0.1694,0.1691,0.1727,0.1727,0.175,0.175,0.175]},{"header":{"parameterUnit":"m.s-1","parameterCategory":1,"la1":30.2991,"la2":30.254,"lo1":-89.0895,"lo2":-89.0444,"dy":0.0017,"dx":0.0017,"nx":28,"ny":28,"refTime":"2025-03-01T09:00:00:Z","depth":0,"parameterNumber":3,"parameterNumberName":"V-component_of_WINDS"},"data":[0,0,0,0,0,0,0,0,0,0,0,0,0,0,0,0,0,0,0,0,0,0,0,0,0,0,0,0,0,0,0,0,0,0,0,0,0,0,0,0,0,0,0,0,0,0,0,0,0,0,0,0,0,0,0,0,0,0,0.5427,0.5428,0,0.5476,0.5477,0.5477,0.5465,0.5464,0.5463,0.5462,0.551,0.5512,0.5514,0,0,0,0,0,0,0,0,0,0,0,0,0,0.5322,0.5324,0.5427,0.5428,0.5429,0.5476,0.5477,0.5477,0.5465,0.5464,0.5463,0.5462,0.5509,0.5512,0.5514,0,0,0,0,0,0,0,0,0,0,0,0,0,0.5369,0.5324,0.5427,0.5428,0.5429,0.5476,0.5477,0.5478,0.5465,0.5464,0.5463,0.5461,0.5508,0.5512,0.5515,0.5563,0,0,0.5525,0.5526,0,0,0,0,0,0,0,0,0.5366,0.5373,0.5427,0.5428,0.5429,0.5463,0.5457,0.5506,0.5466,0.5451,0.5462,0.5461,0.5495,0.55,0.5512,0.5565,0.5567,0.5525,0.5527,0.5528,0.5529,0,0,0,0,0,0,0,0.5363,0.537,0.5447,0.5428,0.5429,0.5426,0.5431,0.5466,0.5481,0.5453,0.5452,0.5458,0.5496,0.5509,0.5513,0.5568,0.5525,0.5528,0.553,0.5531,0.5664,0.5666,0,0,0,0,0,0,0.5359,0.5368,0.5445,0.5448,0.5393,0.5429,0.5434,0.5454,0.548,0.5483,0.5459,0.5457,0.5504,0.5509,0.5514,0.5574,0.5528,0.5531,0.5533,0.5663,0.5665,0.5666,0,0,0,0,0,0,0.5357,0.5366,0.5443,0.5408,0.5417,0.5432,0.5454,0.5455,0.5468,0.5485,0.5488,0.547,0.5503,0.551,0.5551,0.5575,0.5533,0.5536,0.5661,0.5663,0.5665,0.5692,0,0,0,0,0,0,0.5354,0.5366,0.5385,0.5408,0.5419,0.548,0.5455,0.5457,0.5474,0.5472,0.5496,0.5499,0.5502,0.5547,0.5555,0.5579,0.5538,0.5659,0.5662,0.5665,0.5689,0.5694,0.57,0,0,0,0,0,0.535,0.5389,0.5386,0.5395,0.5443,0.5481,0.5487,0.5492,0.5476,0.5495,0.5506,0.5498,0.5571,0.5551,0.556,0.5585,0.5657,0.5661,0.5664,0.5686,0.5693,0.5699,0,0,0,0,0,0,0.5367,0.5392,0.5389,0.5437,0.5457,0.5479,0.5503,0.5499,0.5523,0.552,0.5524,0.5529,0.5572,0.5582,0.556,0.5634,0.5612,0.5617,0.5625,0.5632,0.5638,0.5634,0.5541,0,0,0,0,0,0.5376,0.5406,0.5426,0.5466,0.5477,0.5488,0.5505,0.5506,0.5527,0.5536,0.5549,0.557,0.5597,0.5615,0.5641,0.569,0.5695,0.5712,0.5717,0.5721,0.5726,0.5753,0.5761,0.5678,0.5678,0.5678,0,0,0.5396,0.5413,0.5432,0.547,0.5486,0.5516,0.5496,0.5528,0.555,0.554,0.5581,0.5592,0.5614,0.566,0.568,0.567,0.575,0.5726,0.5729,0.5732,0.5758,0.5766,0.5773,0.5681,0.568,0.568,0,0,0.5447,0.5463,0.5499,0.5515,0.554,0.5548,0.5556,0.5579,0.5586,0.5627,0.5621,0.5646,0.5694,0.571,0.5725,0.5782,0.5776,0.5791,0.5819,0.5846,0.5852,0.5858,0.5879,0.5887,0.5795,0.5795,0.5795,0,0.5468,0.5513,0.5517,0.5551,0.5568,0.5561,0.5597,0.5613,0.5645,0.5657,0.5644,0.5704,0.5719,0.5768,0.5782,0.5794,0.5804,0.5788,0.5851,0.5857,0.5862,0.5883,0.5891,0.5797,0.5797,0.5797,0.5797,0,0.5538,0.557,0.5596,0.5628,0.5648,0.5682,0.5691,0.571,0.571,0.5719,0.576,0.5777,0.5807,0.5819,0.5818,0.5869,0.5862,0.585,0.5829,0.5872,0.5891,0.5899,0.58,0.5799,0.5798,0.5798,0,0,0.5601,0.5636,0.5645,0.566,0.5687,0.5711,0.5745,0.5775,0.5792,0.5814,0.5842,0.5883,0.5873,0.5889,0.589,0.5913,0.5959,0.5899,0.59,0.591,0.6016,0.6025,0.6033,0.5954,0.5956,0.5957,0.6014,0,0.5655,0.5717,0.5721,0.5776,0.5805,0.5799,0.5829,0.5848,0.5857,0.5883,0.5892,0.5921,0.5905,0.5915,0.5938,0.5948,0.598,0.5944,0.5981,0.5982,0.5976,0.6043,0.6053,0.6106,0.6021,0.6023,0.6023,0,0.5727,0.5752,0.581,0.5834,0.5846,0.5873,0.5901,0.5926,0.5947,0.5952,0.5971,0.5969,0.6004,0.598,0.6028,0.6003,0.6018,0.6026,0.6028,0.6032,0.6006,0.605,0.6123,0.6131,0.6035,0.6034,0.6033,0,0.5768,0.5816,0.5858,0.587,0.5898,0.5917,0.593,0.595,0.5968,0.5992,0.6004,0.6031,0.6047,0.6068,0.6073,0.6056,0.6121,0.6098,0.6126,0.6126,0.614,0.614,0.6218,0.6149,0.6149,0.6149,0.6148,0,0.5828,0.5864,0.5877,0.5902,0.5942,0.5947,0.5986,0.5997,0.6015,0.6043,0.6038,0.6064,0.6069,0.6095,0.61,0.6139,0.6145,0.615,0.6151,0.6151,0.6151,0.6162,0.6158,0.6151,0.615,0.615,0.615,0,0.5881,0.5891,0.5936,0.5959,0.5966,0.5994,0.6014,0.6038,0.6046,0.6081,0.6089,0.6102,0.6133,0.614,0.6176,0.6179,0.6226,0.6223,0.6219,0.6219,0.6247,0.6244,0.6335,0.6347,0.627,0.6271,0.6271,0,0.5919,0.5947,0.5974,0.5992,0.6006,0.6035,0.6054,0.6059,0.6079,0.6106,0.6127,0.6157,0.6182,0.6231,0.6244,0.6271,0.6269,0.6299,0.6274,0.6273,0.6271,0.6269,0.6272,0.6304,0.6305,0.6306,0.6306,0,0.5986,0.599,0.6017,0.6047,0.607,0.6093,0.6115,0.613,0.6138,0.616,0.6192,0.6211,0.6249,0.6279,0.6308,0.6319,0.6315,0.6314,0.6322,0.6323,0.632,0.6323,0.6233,0.6312,0.6312,0.6311,0.6311,0.6311,0.6034,0.6058,0.6081,0.6112,0.6129,0.615,0.6174,0.6186,0.6213,0.6245,0.6246,0.6281,0.6302,0.634,0.6354,0.6381,0.6371,0.6383,0.6386,0.6389,0.6392,0.6315,0.6385,0.6385,0.6385,0.6385,0.6385,0,0.6101,0.6116,0.6144,0.6176,0.62,0.6194,0.6218,0.6238,0.6269,0.629,0.6315,0.6352,0.6381,0.6396,0.6425,0.6444,0.6442,0.6451,0.645,0.6453,0.6398,0.6389,0.6452,0.6452,0.6452,0.6452,0.6452,0.6452,0.6139,0.6181,0.6187,0.6237,0.6251,0.6286,0.6301,0.632,0.6336,0.6378,0.6403,0.6413,0.6431,0.6462,0.6488,0.6492,0.6503,0.6513,0.6516,0.6464,0.6457,0.6451,0.6442,0.6516,0.6516,0.6569,0.657,0.657]}]]